Vorticity
nan nan nan nan nan nan nan nan nan nan nan nan nan nan nan nan nan nan nan nan nan nan nan nan nan nan nan nan nan nan nan nan nan nan nan nan nan nan nan nan nan nan nan nan nan nan nan nan nan
nan 9 9 9 6 4 7 8 8 5 2 7 10 5 6 6 5 6 13 16 9 5 6 7 8 5 5 5 5 6 5 5 5 5 5 5 5 5 5 4 5 5 5 5 5 5 6 6 nan
nan 8 8 9 5 5 7 4 5 6 6 10 9 9 6 14 7 8 12 13 8 6 8 10 8 5 6 5 5 6 6 6 6 5 5 5 5 5 5 5 5 5 5 4 5 5 6 6 nan
nan 6 10 10 4 2 3 2 4 9 7 7 8 5 2 4 11 19 18 9 5 4 8 11 6 5 6 6 6 6 6 6 6 5 5 5 5 5 5 5 5 5 5 4 5 5 5 5 nan
nan 9 7 5 7 6 5 4 5 8 8 3 6 6 8 -1 7 13 13 11 8 6 8 9 7 6 6 6 6 6 6 6 5 5 5 5 5 5 5 5 5 6 5 5 5 5 5 5 nan
nan 9 6 7 6 7 7 8 9 4 5 5 2 11 12 5 7 8 8 9 9 9 9 11 8 5 6 6 6 6 6 5 5 5 5 5 5 5 5 6 6 6 6 5 5 5 5 5 nan
nan 8 8 6 5 6 7 7 7 7 4 8 7 10 0 6 15 10 8 8 8 9 10 8 7 7 6 5 7 7 6 5 5 6 6 5 5 6 5 6 6 6 5 5 5 5 4 5 nan
nan 8 9 6 7 5 4 9 5 6 4 5 8 7 9 7 7 7 6 7 9 8 8 7 5 7 5 8 9 6 6 5 5 5 6 6 5 5 5 5 6 6 5 5 5 5 5 5 nan
nan 6 6 8 6 5 2 6 8 6 5 8 7 4 7 9 4 4 4 6 10 7 5 9 6 4 8 10 8 9 6 4 4 4 3 2 5 9 7 6 6 5 5 5 5 5 5 5 nan
nan 9 8 3 4 6 6 5 8 8 10 7 4 5 6 9 8 5 3 4 5 8 6 6 7 7 8 7 7 6 4 4 5 7 5 4 7 7 8 9 8 6 6 6 5 6 5 4 nan
nan 5 7 4 6 9 7 6 11 6 8 7 4 5 8 5 7 6 7 6 6 4 5 6 6 9 5 5 7 6 7 7 8 7 6 6 5 5 5 7 8 9 8 6 7 7 7 6 nan
nan 8 6 4 4 6 8 5 9 10 3 4 5 7 6 5 4 8 8 8 10 8 6 5 5 4 4 9 8 6 6 7 7 9 6 5 5 6 5 6 7 7 8 8 7 7 7 7 nan
nan 6 2 7 7 8 8 9 9 4 5 6 8 8 6 7 6 10 8 9 8 9 10 9 6 5 7 5 8 9 7 8 8 8 7 5 6 6 6 7 7 7 7 7 7 7 7 7 nan
nan 6 7 11 12 9 10 7 10 8 7 6 10 9 9 9 8 6 8 9 9 11 11 12 9 6 5 5 8 6 10 9 7 8 11 6 4 6 7 7 7 6 7 7 8 7 8 6 nan
nan 8 14 11 10 9 9 6 8 3 8 6 5 11 11 8 11 8 6 8 7 9 15 12 10 7 4 4 4 7 8 9 8 8 11 8 6 7 6 5 7 7 8 8 7 7 7 6 nan
nan 7 7 6 9 12 7 2 5 7 6 6 9 8 7 8 9 9 9 8 8 9 11 10 10 9 6 4 4 5 8 8 7 9 10 10 8 7 6 7 7 8 8 7 8 8 7 8 nan
nan 6 3 8 9 8 1 1 7 8 7 8 8 7 6 6 5 8 9 10 9 10 8 10 11 11 9 6 6 7 6 6 7 8 11 11 9 7 7 7 9 8 7 7 7 8 9 8 nan
nan 10 6 6 5 7 0 7 6 10 9 8 5 5 7 7 7 8 8 10 9 9 9 10 15 12 9 7 7 7 6 7 7 7 9 9 9 8 6 7 9 7 7 7 8 8 8 9 nan
nan 7 6 5 8 8 7 7 5 12 10 8 6 6 7 6 11 10 8 8 9 7 10 13 12 11 9 9 8 8 7 5 6 9 9 7 8 8 6 6 8 8 9 9 6 7 8 8 nan
nan 5 6 7 11 7 7 6 14 17 12 8 8 9 8 7 9 8 9 9 11 9 7 13 10 10 6 7 7 10 11 10 8 8 8 9 7 6 7 7 8 7 7 10 9 6 6 8 nan
nan 7 7 8 15 13 12 9 10 16 9 11 10 9 9 9 7 9 9 8 11 10 10 10 13 10 8 5 3 8 9 9 10 9 9 10 9 8 8 7 7 8 7 9 9 7 6 6 nan
nan 10 7 11 8 12 9 9 21 14 8 6 8 10 8 9 13 12 10 11 12 11 10 11 11 10 10 9 8 7 5 3 7 7 8 12 10 8 7 8 8 7 8 10 9 6 6 8 nan
nan 7 8 12 10 12 4 8 15 8 14 12 12 8 10 11 12 11 11 12 9 14 14 12 14 11 9 9 7 7 6 4 9 13 10 7 10 12 9 7 7 7 9 11 9 7 7 8 nan
nan 10 13 16 17 11 13 4 -5 11 8 8 9 8 7 7 9 11 12 14 6 8 12 14 15 12 10 9 8 7 6 4 5 10 9 8 10 12 12 10 9 8 11 11 7 9 10 8 nan
nan 12 14 9 12 8 9 13 7 5 10 9 4 6 11 11 6 6 10 10 7 7 9 9 13 16 11 8 9 8 6 8 7 5 8 9 7 11 15 9 6 8 10 11 10 9 10 11 nan
nan 11 6 6 6 3 8 15 15 6 5 10 14 16 10 7 8 8 9 8 11 7 7 8 8 12 16 13 9 10 7 4 9 8 9 8 10 12 11 9 9 10 8 8 9 8 10 11 nan
nan 10 7 10 8 10 9 5 8 14 10 12 14 11 9 9 9 9 9 9 10 12 8 7 8 9 13 13 12 11 10 9 7 7 8 10 10 13 13 10 10 10 10 10 8 8 9 9 nan
nan 3 6 11 13 12 9 11 6 11 17 9 5 6 8 8 8 9 8 8 10 9 12 11 10 9 10 14 11 12 12 9 8 9 11 10 11 11 11 10 9 9 7 8 9 10 10 9 nan
nan 5 6 8 9 7 9 10 11 3 3 6 6 6 5 7 6 8 10 7 7 9 11 11 10 9 11 14 12 11 12 11 10 8 10 10 10 10 10 9 10 8 7 7 9 10 10 8 nan
nan nan nan nan nan nan nan nan nan nan nan nan nan nan nan nan nan nan nan nan nan nan nan nan nan nan nan nan nan nan nan nan nan nan nan nan nan nan nan nan nan nan nan nan nan nan nan nan nan
CAPE
0 0 0 0 0 0 0 0 0 0 0 0 0 0 0 0 0 0 44 773 1202 1724 2017 2067 2232 1988 1828 1639 1538 1550 1540 1621 1623 1570 1467 1443 1365 1296 1381 1478 1569 1644 1179 963 775 556 314 156 155
0 0 0 0 0 0 0 0 0 0 0 0 0 0 0 0 0 250 286 965 1458 1641 1895 1956 2213 1968 1884 1656 1498 1416 1510 1540 1512 1479 1439 1388 1311 1299 1430 1525 1735 1571 1034 894 674 388 179 145 169
0 0 0 0 0 0 0 0 0 0 0 0 0 0 4 678 1043 443 295 1334 1646 1568 1533 1854 2228 1982 1851 1607 1437 1344 1363 1369 1414 1439 1410 1380 1324 1306 1422 1675 1727 1414 1007 934 788 385 177 156 201
0 0 0 0 0 0 0 0 0 0 0 0 0 0 0 1044 1190 624 1053 1470 1524 1587 1572 2264 2251 1943 1777 1636 1465 1356 1324 1325 1348 1434 1395 1358 1337 1349 1525 1697 1661 1558 1122 970 801 353 191 122 100
0 0 0 0 0 0 0 0 0 0 0 0 0 0 0 1122 1497 1082 1070 1517 1516 1603 1667 2125 2208 1957 1874 1655 1394 1395 1295 1308 1381 1472 1444 1387 1371 1506 1711 1826 1758 1572 1154 1015 450 250 226 246 108
0 0 0 0 0 0 0 0 0 0 0 0 0 0 0 227 1075 1225 1021 1107 1473 1502 1843 1856 2098 2004 1803 1673 1502 1359 1281 1329 1483 1504 1413 1403 1347 1445 1616 1700 1747 1576 1302 547 266 191 111 175 138
0 0 0 0 0 0 0 0 0 0 0 0 0 0 0 9 1210 835 526 846 1296 1581 1639 1582 1670 1766 1826 1669 1452 1295 1372 1371 1442 1356 1298 1356 1462 1546 1620 1636 1596 1338 873 654 409 197 127 122 100
0 0 0 0 0 0 0 0 0 0 0 0 0 0 0 453 898 668 942 789 1209 1527 1401 1260 1274 1417 1453 1433 1513 1360 1434 1496 1410 1353 1365 1414 1516 1508 1471 1147 1160 964 783 618 433 225 135 42 0
0 0 0 0 0 0 0 0 0 0 0 0 0 0 0 0 1071 1064 1225 1167 1215 1200 1271 1160 980 1109 950 1031 1218 1431 1321 1604 1503 1394 1431 1253 976 1116 1090 816 1075 942 744 570 356 210 53 0 0
0 0 0 0 0 0 0 0 0 0 0 0 0 0 0 0 954 1288 1220 1193 1278 1238 1272 1203 1064 955 765 860 879 947 782 1102 1144 1072 1033 673 653 583 787 788 1078 946 664 414 270 93 1 0 0
0 0 0 0 0 0 0 0 0 0 0 0 0 0 0 0 0 230 1400 1383 1215 1244 1151 1105 985 916 796 739 779 748 741 656 769 805 735 629 795 711 726 481 828 421 536 38 128 11 0 0 0
0 0 0 0 0 0 0 0 0 0 0 0 0 0 0 0 0 0 0 376 1386 1196 1226 1082 1007 947 724 693 741 655 552 428 566 690 735 667 275 484 422 366 310 120 69 0 0 0 0 0 0
0 0 0 0 0 0 0 0 0 0 0 0 0 0 0 0 0 0 0 0 2 1240 1265 1091 1082 880 833 690 678 550 357 330 221 235 262 251 120 198 224 245 171 47 0 0 0 0 0 0 0
0 0 0 0 0 0 0 0 0 0 0 0 0 0 0 0 0 0 0 0 0 11 1269 1133 1084 996 846 850 753 689 307 253 211 171 207 199 185 267 169 130 112 22 0 0 0 0 0 0 0
0 0 0 0 0 0 0 0 0 0 0 0 0 0 0 0 0 0 0 0 0 0 791 1081 1102 1038 946 938 581 585 349 301 206 236 226 147 147 125 157 83 45 45 0 0 0 0 0 0 0
0 0 0 0 0 0 0 0 0 0 0 0 0 0 0 0 0 0 0 0 0 0 414 928 1132 1076 961 1020 715 727 578 450 290 194 94 95 51 60 75 54 53 9 0 0 0 0 0 3 32
0 0 0 0 0 0 0 0 0 0 0 0 0 0 0 0 0 0 0 0 0 0 0 558 768 951 959 904 823 708 511 305 116 33 20 17 28 1 33 51 27 1 0 0 0 2 7 82 0
0 0 0 0 0 0 0 0 0 0 0 0 0 0 0 0 0 0 0 0 0 0 0 0 548 807 786 813 719 531 257 169 21 21 9 0 3 9 0 20 42 15 0 4 20 102 29 17 0
0 0 0 0 0 0 0 0 0 0 0 0 0 0 0 0 0 0 0 0 0 0 0 0 264 579 495 318 430 437 455 162 5 8 31 0 0 32 35 25 17 49 173 163 145 131 19 0 0
0 0 0 0 0 0 0 0 0 0 0 0 0 0 0 0 0 0 0 0 0 0 0 2 380 315 414 326 427 392 478 162 46 0 13 2 0 1 111 81 36 80 238 247 207 48 0 0 0
0 0 0 0 0 0 0 0 0 0 0 0 0 0 0 0 0 0 0 0 0 0 0 41 544 398 449 444 363 158 99 47 13 4 0 26 0 0 40 191 99 147 237 285 183 32 0 0 0
0 0 0 0 0 0 0 0 0 0 0 0 0 0 0 0 0 0 0 0 0 0 0 0 809 679 522 467 408 335 237 128 44 32 95 68 10 0 12 103 186 250 274 244 195 17 0 0 0
0 0 0 0 0 0 0 0 0 0 0 0 0 0 0 0 0 0 0 0 0 0 0 0 1014 1127 812 638 567 499 397 241 141 30 165 145 71 0 7 98 264 321 218 188 65 0 0 0 0
0 0 0 0 0 0 0 0 0 0 0 0 0 0 0 0 0 0 0 0 0 0 0 0 826 1681 1237 994 899 707 600 466 322 275 317 269 182 27 3 179 346 228 70 48 7 0 0 0 0
0 0 0 0 0 0 0 0 0 0 0 0 0 0 0 0 0 0 0 0 0 0 0 0 0 1540 1781 1354 1237 1007 786 742 564 404 496 531 278 151 254 355 148 3 1 0 0 0 0 0 0
0 0 0 0 0 0 0 0 0 0 0 0 0 0 0 0 0 0 0 0 0 0 0 0 0 0 1632 1827 1507 1359 1000 868 752 685 804 530 396 354 487 280 79 1 0 0 0 0 0 0 0
0 0 0 0 0 0 0 0 0 0 0 0 0 0 0 0 0 0 0 0 0 0 0 0 0 0 43 2063 1828 1588 1228 942 882 959 897 668 514 534 456 108 0 0 0 0 0 0 0 0 0
0 0 0 0 0 0 0 0 0 0 0 0 0 0 0 0 0 0 0 0 0 0 0 0 0 0 0 324 1828 1750 1590 1172 870 976 929 753 701 760 151 3 1 0 0 0 0 0 0 0 0
0 0 0 5 10 0 0 0 0 0 0 0 0 0 0 0 0 0 0 0 0 0 0 0 0 0 0 3 1117 1715 1703 1478 987 1100 1018 909 965 483 140 0 1 0 0 0 0 0 0 0 0
0 0 0 1 1 7 2 0 0 0 0 0 0 0 0 0 0 0 0 0 0 0 0 0 0 0 0 66 680 1725 1772 1812 1454 1386 1129 1073 901 293 116 0 1 1 0 0 0 0 0 0 0